Simultaneous Nadir Overpasses (SNOs) Predictions

Prediction of SNOs between GOES-16 and NOAA-19 Satellite Orbit:

Table of predicted SNOs for the next 14.0 days since TLE Epoch: 3/30/2017
Index Date Time (GOES-16) GOES-16 Lat,Lon NOAA-19 Lat,Lon Distance(km) Time Diff (sec)
1 03/31/2017 08:47:52 -0.00, -89.50 -0.97, -85.26 484.39 80
2 04/01/2017 21:21:05 0.00, -89.49 -0.88, -93.22 427.04 80
3 04/02/2017 21:09:39 0.00, -89.49 -0.22, -90.44 109.07 80
4 04/03/2017 21:00:54 0.00, -89.49 0.45, -87.67 209.00 80
5 04/06/2017 09:22:22 -0.00, -89.53 0.73, -92.78 370.81 80
6 04/07/2017 09:10:56 -0.00, -89.54 0.10, -89.99 52.25 80
7 04/08/2017 08:56:50 -0.00, -89.54 -0.52, -87.21 266.47 80
8 04/10/2017 21:18:37 0.00, -89.55 -0.63, -92.40 325.22 80
9 04/11/2017 21:07:11 0.00, -89.56 -0.00, -89.61 5.97 80
10 04/12/2017 20:58:24 0.00, -89.58 0.62, -86.83 313.38 80




NCC Satellite Simultaneous Nadir Overpasses (SNOs) Prediction Service
